Tracking 19149 objects as of 22-Apr-2018
HD Live streaming from Space Station
objects crossing your sky now

SL-12 DEB

Track SL-12 DEB now!
10-day predictions


NORAD ID: 42980
Int'l Code: 2010-041V
Perigee: 834.6 km
Apogee: 18,953.9 km
Inclination: 65.4 °
Period: 344.1 minutes
Semi major axis: 16265 km
RCS: Unknown
Launch date: September 2, 2010
Source: Commonwealth of Independent States (former USSR) (CIS)
Launch site: TYURATAM MISSILE AND SPACE COMPLEX (TTMTR)

Note: This is SATELLITE DEBRIS
aabbcc
Your satellite tracking list
Your tracking list is empty




NASA's NSSDC Master Catalog

Two Line Element Set (TLE):
1 42980U 10041V   18112.10009603 -.00000293  00000-0 -59244-2 0  9993
2 42980  65.4050 100.5922 5569958  70.7631 339.6594  4.18515870  9596
Source of the keplerian elements: AFSPC